Location: Perugia
(43.1330°N, 12.3670°E)
Time: 12:11:33
(UTC+01:00)

ISS - Visible Passes

Search period start: 19 January 2018 00:00
Search period end: 29 January 2018 00:00
Orbit: 402 x 407 km, 51.6° (Epoch: 19 January)

Date Brightness Start Highest point End Pass type
(mag) Time Alt. Az. Time Alt. Az. Time Alt. Az.
24 Jan -2.0 19:01:42 10° SSW 19:03:18 21° S 19:03:18 21° S visible
25 Jan -1.8 18:10:22 10° S 18:12:21 15° SE 18:13:30 13° ESE visible
25 Jan -1.0 19:45:14 10° WSW 19:46:10 18° WSW 19:46:10 18° WSW visible
26 Jan -3.9 18:52:54 10° SW 18:56:07 65° SE 18:56:16 64° SE visible
27 Jan -2.9 18:00:51 10° SSW 18:03:49 34° SE 18:06:16 14° ENE visible
27 Jan -1.5 19:37:13 10° W 19:38:56 25° WNW 19:38:56 25° WNW visible
28 Jan -3.5 18:44:36 10° WSW 18:47:48 58° NNW 18:48:51 36° NNE visible
